Location: Staunton
(38.1490°N, 79.0720°W)
Time: 02:00:28
(UTC-04:00)

ISS - Pass Details

Date: 17 March 2018
Orbit: 402 x 407 km, 51.6° (Epoch: 25 June)

Event Time Altitude Azimuth Distance (km) Brightness Sun altitude
Exits shadow 04:13:46 - 52° (NE) 1,970 0.5 -36.6°
Enters shadow 05:14:19 -61° 286° (WNW) 11,674 3.6 -25.9°
Maximum altitude 05:48:16 26° 30° (NNE) 840 -1.8 -19.6°
